ATLAS 5 CENTAUR DEB *, 43950

Orbit data source: Space-Track

ATLAS 5 CENTAUR DEB *, 43950 is space debris in HEO originally from a launch on Wed, 17 Sep 2014 UTC launched from the Air Force Eastern Test Range (AFETR). Debris objects in space refer to the collection of defunct objects orbiting the Earth. Examples of debris include non-operational satellites, rocket bodies, and fragments generated from explosions, collisions, or faulty payload assembly.

Loading next visibility...
Identifier
43950, 2014-055D
Orbit
HEO
Country
Flag of USUS
Related business
Flag of USUnited Launch Alliance/Lockheed Martin (US)
Manufacturer
Unknown
Mission
Spacecraft
Bus & Motor
Unknown
Mass
Unknown
Launch date (UTC)
2014-09-17 (12 years ago)
Launch vehicle
Unknown
Launch site
Air Force Eastern Test Range (AFETR)
Object type
Payload
Rocket body
Debris
Shape & HBR
Unknown shape, 1.1 m
Radar Cross Section
Medium (>0.1 m² and <1 m²)

Expand to show TLE details & history
Last TLE update: 1 day ago

TLE from 1 day ago
0 ATLAS 5 CENTAUR DEB *
1 43950U 14055D   26236.16101327  .00000079  00000-0  00000-0 0  9992
2 43950  22.1116  89.7394 5184813 273.4112  31.2532  1.95804548 57019
Epoch: 2026-08-24T03:51Z
TLE epoch observation values (Epoch: 2026-08-24T03:51:51.546Z)
Latitude
0.00005°
Longitude
59.41933°
Altitude
12,787.692 km
Speed
5.179 km/s
True Right ascension
05h 59m 19s
True Declination
0° 00' 00"
Sunlit
Object was in daylight at epoch
Visualization orbit readout
Latitude
Unknown
Longitude
Unknown
Altitude
Unknown
Speed
Unknown
Apparent Right ascension
Unknown
Apparent Declination
Unknown
Sunlit
N/A
Visualization observer readout
Local Sidereal Time
00:14:26
Azimuth
Unknown
Elevation
Unknown
Doppler factor
Unknown
Orbital elements
Apogee altitude
34,607.288 km
Perigee altitude
6,618.565 km
Semi-major axis
26,991.064 km
Eccentricity
0.51848
Inclination
22.1116°
RAAN
89.7394°
Arg. of periapsis
273.4112°
True anomaly
86.5114°
Mean anomaly
31.2532°
Eccentric anomaly
55.83261°
Mean motion
0.48946 °/min
Orbital period
735.51 mins
BSTAR
0
Loading maneuver chart data...
Computing Atmospheric mass density...

Documentation

Showing up to 5 results
|